KC4ANB Weather Reports


time (UTC)temp
F
wind
direction
speed
knots
gust
knots
rain 1hr
in
rain 24hr
in
rain mn
in
humidity
%
barometer
mb
20260504175936 75 248 1.7 5.2 0.00 0.00 0.00 45 1015.4
20260504174936 76 180 0.9 2.6 0.00 0.00 0.00 48 1015.3
20260504173916 75 338 0.9 1.7 0.00 0.00 0.00 48 1015.4
20260504172916 75 293 1.7 2.6 0.00 0.00 0.00 50 1015.6
20260504171916 75 293 0.9 1.7 0.00 0.00 0.00 49 1015.8
20260504170916 76 135 0.9 2.6 0.00 0.00 0.00 49 1016.1
20260504150916 69 0.0 1.7 0.00 0.00 0.00 60 1016.7
20260504140915 65 158 2.6 3.5 0.00 0.00 0.00 63 1017.1
20260504081917 48 0.0 0.0 0.00 0.00 0.00 86 1016.1
20260504080917 48 0.0 0.0 0.00 0.00 0.00 86 1016.2
20260504045915 50 0.0 0.0 0.00 0.00 0.00 82 1017.3
20260504044915 50 0.0 0.0 0.00 0.00 0.00 81 1017.3
20260504043915 50 0.0 0.0 0.00 0.00 0.00 82 1017.2
20260504042936 50 0.0 0.0 0.00 0.00 0.00 81 1017.3
20260504041917 51 0.0 0.0 0.00 0.00 0.00 79 1017.4
20260504040938 51 0.0 0.0 0.00 0.00 0.00 80 1017.4
20260504035917 51 0.0 0.0 0.00 0.00 0.00 77 1017.6
20260504034917 51 0.0 0.0 0.00 0.00 0.00 77 1017.7
20260504033917 52 0.0 0.0 0.00 0.00 0.00 78 1017.8
20260504032917 52 0.0 0.0 0.00 0.00 0.00 76 1017.8
20260504031937 52 0.0 0.0 0.00 0.00 0.00 77 1017.8
20260504030917 52 0.0 0.0 0.00 0.00 0.00 75 1017.8
20260504025917 53 0.0 0.0 0.00 0.00 0.00 76 1017.7
20260504024917 53 0.0 0.0 0.00 0.00 0.00 75 1017.7
20260504023939 53 0.0 0.0 0.00 0.00 0.00 75 1017.5
20260504022917 54 0.0 0.0 0.00 0.00 0.00 74 1017.4
20260504021917 54 0.0 0.0 0.00 0.00 0.00 73 1017.4
20260504020919 54 0.0 0.0 0.00 0.00 0.00 75 1017.2
20260504015917 54 0.0 0.0 0.00 0.00 0.00 75 1017.1
20260504014917 55 0.0 0.0 0.00 0.00 0.00 75 1017.1
20260504013917 55 0.0 0.0 0.00 0.00 0.00 73 1017.0
20260504012917 56 0.0 0.0 0.00 0.00 0.00 70 1016.9
20260504011937 56 0.0 0.0 0.00 0.00 0.00 71 1016.8
20260504010917 57 0.0 0.0 0.00 0.00 0.00 69 1016.8
20260504005917 58 0.0 0.0 0.00 0.00 0.00 67 1016.7
20260504004917 59 0.0 0.0 0.00 0.00 0.00 67 1016.6
20260504003937 60 0.0 0.0 0.00 0.00 0.00 64 1016.5
20260504002917 61 0.0 0.0 0.00 0.00 0.00 63 1016.5
20260504001959 62 0.0 0.0 0.00 0.00 0.00 61 1016.5
20260504000919 63 0.0 0.0 0.00 0.00 0.00 60 1016.5
20260503235917 64 0.0 0.0 0.00 0.00 0.00 56 1016.5
20260503234917 64 0.0 0.0 0.00 0.00 0.00 51 1016.4
20260503233917 65 0.0 0.0 0.00 0.00 0.00 49 1016.4
20260503232917 65 0.0 0.0 0.00 0.00 0.00 48 1016.3
20260503231918 66 0.0 0.0 0.00 0.00 0.00 45 1016.2
20260503230917 66 0.0 0.9 0.00 0.00 0.00 46 1016.4
20260503225916 66 0.0 1.7 0.00 0.00 0.00 45 1016.5
20260503224917 66 0.0 1.7 0.00 0.00 0.00 46 1016.6
20260503223917 66 0.0 0.9 0.00 0.00 0.00 47 1016.6
20260503222957 66 0.0 0.9 0.00 0.00 0.00 46 1016.7
20260503221916 66 338 0.9 2.6 0.00 0.00 0.00 46 1016.8
20260503220917 66 0.0 0.9 0.00 0.00 0.00 45 1016.9
20260503215917 67 0.0 0.9 0.00 0.00 0.00 45 1017.0
20260503214937 66 0.0 0.9 0.00 0.00 0.00 44 1017.0
20260503213916 66 0.0 0.9 0.00 0.00 0.00 46 1017.1
20260503212937 66 0 0.9 0.9 0.00 0.00 0.00 46 1017.2
20260503211917 66 338 0.9 2.6 0.00 0.00 0.00 43 1017.3
20260503210937 66 270 0.9 2.6 0.00 0.00 0.00 42 1017.4
20260503205916 66 315 1.7 3.5 0.00 0.00 0.00 43 1017.5
20260503204916 66 23 0.9 1.7 0.00 0.00 0.00 45 1017.6
20260503203917 66 293 0.9 0.9 0.00 0.00 0.00 45 1017.8
20260503202916 66 135 0.9 1.7 0.00 0.00 0.00 47 1017.9
20260503201916 66 0.0 0.9 0.00 0.00 0.00 48 1018.1
20260503200917 65 338 2.6 4.3 0.00 0.00 0.00 46 1018.3
20260503195916 66 248 0.9 1.7 0.00 0.00 0.00 45 1018.5
20260503194937 65 0.0 1.7 0.00 0.00 0.00 47 1018.7
20260503193916 65 270 0.9 1.7 0.00 0.00 0.00 49 1018.9
20260503192917 65 0.0 0.9 0.00 0.00 0.00 48 1019.1
20260503191918 65 293 0.9 1.7 0.00 0.00 0.00 49 1019.2
20260503190916 66 315 0.9 2.6 0.00 0.00 0.00 45 1019.4
20260503185916 66 0.0 0.9 0.00 0.00 0.00 48 1019.6
20260503184916 66 0.0 0.0 0.00 0.00 0.00 48 1019.8
20260503183916 66 0.0 0.9 0.00 0.00 0.00 48 1019.8
20260503182916 66 0.0 1.7 0.00 0.00 0.00 45 1020.0
20260503181916 65 270 0.9 2.6 0.00 0.00 0.00 46 1020.1
20260503180916 66 293 0.9 2.6 0.00 0.00 0.00 46 1020.0